Regional Weather Roundup
Issued by NWS

Home | Current Version | Previous Version | Text Only | Print | Product List | Glossary On
Versions: 1 2 3 4 5 6 7 8 9 10 11 12 13 14 15 16 17 18 19 20 21 22 23 24 25 26 27 28 29 30 31 32 33 34 35 36 37 38 39 40 41 42 43 44 45 46 47 48 49 50
000
ASUS45 KCYS 221710
RWRWY

WYOMING REGIONAL WEATHER ROUNDUP
NATIONAL WEATHER SERVICE CHEYENNE WY
1100 AM MDT FRI AUG 22 2014

NOTE:  "FAIR" INDICATES FEW OR NO CLOUDS BELOW 12,000 FEET
WITH NO SIGNIFICANT WEATHER AND/OR OBSTRUCTIONS TO VISIBILITY.

WYZ001-221800-
YELLOWSTONE NATIONAL PARK

CITY           SKY/WX    TMP DP  RH WIND       PRES   REMARKS
LK YELLOWSTONE   N/A     46  44  93 CALM      30.23S
W YELLOWSTONE  NOT AVBL

$$
WYZ002>013-054>058-071-098>099-221800-
NORTHERN WYOMING

CITY           SKY/WX    TMP DP  RH WIND       PRES   REMARKS
JACKSON        CLOUDY    48  46  93 W3        30.19
CODY           CLOUDY    57  52  82 N3        30.11S
GREYBULL       CLOUDY    63  54  72 VRB3      30.07S
WORLAND        PTSUNNY   62  51  67 NW5       30.06F
SHERIDAN       CLOUDY    60  57  89 N5        30.08F
BUFFALO        CLOUDY    64  54  69 SE15      30.11F
GILLETTE       PTSUNNY   69  54  58 SE8       30.10S
HULETT         CLOUDY    68  55  64 MISG      30.11
NEWCASTLE      FAIR      68  54  60 S13       30.10

$$
WYZ014>020-022>026-101>103-221800-
CENTRAL WYOMING

CITY           SKY/WX    TMP DP  RH WIND       PRES   REMARKS
BIG PINEY      PTSUNNY   54  44  69 NE12      30.20F
PINEDALE       LGT RAIN  48  45  87 NW17G23   30.23R
DUBOIS         DRIZZLE   48  41  76 W20       30.20R
LANDER         PTSUNNY   62  49  62 N3        30.09F
RIVERTON       MOSUNNY   64  48  56 SW5       30.11F
CASPER         PTSUNNY   66  50  56 E6        30.12F
DOUGLAS        PTSUNNY   68  52  56 SE9       30.13F

$$
WYZ021-027>030-104>119-221800-
SOUTHERN WYOMING

CITY           SKY/WX    TMP DP  RH WIND       PRES   REMARKS
EVANSTON       PTSUNNY   60  47  61 VRB3      30.17F
KEMMERER       PTSUNNY   61  43  51 E7        30.20S
FORT BRIDGER   PTSUNNY   58  48  71 NE5       30.20F
ROCK SPRINGS   MOSUNNY   65  43  44 SE7       30.15F
DIXON          PTSUNNY   71  45  39 SW3       30.19F
RAWLINS        MOSUNNY   64  47  53 CALM      30.19F
SARATOGA       FAIR      66  45  45 MISG      30.21S
LARAMIE        PTSUNNY   65  44  46 S13       30.22F
CHEYENNE       PTSUNNY   69  51  52 S10G21    30.19F
TORRINGTON     CLOUDY    68  56  65 S5        30.09F
PINE BLUFFS    FAIR      68  55  64 S3        30.16F

$$



USA.gov is the U.S. government's official web portal to all federal, state and local government web resources and services.